Hartford, CT

9:19 AM EDT on August 29, 2016 (GMT -0400)
Bradley International

Weather History for KBDL - November, 2012

Change the Weather History Date:

Monday, November 5, 2012

  Actual Average Record
Temperature  
Mean Temperature 37 °F 46 °F  
Max Temperature 45 °F 56 °F 76 °F (1994)
Min Temperature 28 °F 36 °F 21 °F (1952)
Degree Days  
Heating Degree Days 28 19  
Month to date heating degree days 102 93  
Since 1 July heating degree days 481 622  
Cooling Degree Days 0 0  
Month to date cooling degree days 0 0  
Year to date cooling degree days 981 756  
Moisture  
Dew Point 21 °F    
Average Humidity 49    
Maximum Humidity 59    
Minimum Humidity 39    
Precipitation  
Precipitation 0.00 in 0.12 in 1.79 in (1985)
Month to date precipitation T 0.63  
Year to date precipitation 33.49 39.15  
Snow  
Snow 0.00 in 0.10 in 0.20 in (1908)
Month to date snowfall 0.0 0.2  
Since 1 July snowfall 0.0 0.2  
Since 1 September snowfall 0.0 0.2  
Snow Depth -    
Sea Level Pressure  
Sea Level Pressure 30.04 in    
Wind  
Wind Speed 8 mph (NNW)    
Max Wind Speed 17 mph    
Max Gust Speed 23 mph    
Visibility 10 miles    
Events      
T = Trace of Precipitation, MM = Missing Value Source: NWS Daily Summary

Daily Weather History Graph

Daily Weather History Graph

Search for Another Location

Airport or City:

Trip Planner

Search our weather history database for the weather conditions in past years. The results will help you decide how hot, cold, wet, or windy it might be!

Date:

Astronomy

Nov. 05, 2012 Rise Set
Actual Time 6:28 AM EST 4:39 PM EST
Civil Twilight 5:59 AM EST 5:08 PM EST
Nautical Twilight 5:26 AM EST 5:41 PM EST
Astronomical Twilight 4:53 AM EST 6:14 PM EST
Moon 10:14 PM EST (11/5) 11:46 AM EST (11/5)
Length of Visible Light 11h 09m
Length of Day
10h 10m
Waning Gibbous, 63% of the Moon is Illuminated
Nov 5
Waning Gibbous
Nov 6
Last Quarter
Nov 13
New
Nov 20
First Quarter
Nov 28
Full

Hourly Weather History & Observations

Time (EST) Temp. Windchill Dew Point Humidity Pressure Visibility Wind Dir Wind Speed Gust Speed Precip Events Conditions
12:51 AM 39.9 °F 33.9 °F 27.0 °F 60% 29.96 in 10.0 mi WNW 9.2 mph - N/A   Mostly Cloudy
1:51 AM 39.9 °F 34.5 °F 26.1 °F 58% 29.96 in 10.0 mi NW 8.1 mph - N/A   Overcast
2:51 AM 39.0 °F 33.4 °F 25.0 °F 57% 29.97 in 10.0 mi North 8.1 mph - N/A   Overcast
3:51 AM 37.9 °F 30.9 °F 24.1 °F 57% 29.96 in 10.0 mi North 10.4 mph - N/A   Overcast
4:51 AM 37.0 °F 29.3 °F 23.0 °F 57% 29.98 in 10.0 mi NNW 11.5 mph - N/A   Overcast
5:51 AM 37.0 °F 32.4 °F 21.9 °F 54% 29.99 in 10.0 mi North 5.8 mph - N/A   Overcast
6:51 AM 37.0 °F 32.4 °F 21.9 °F 54% 30.01 in 10.0 mi NNW 5.8 mph - N/A   Overcast
7:51 AM 37.9 °F 34.4 °F 21.9 °F 53% 30.03 in 10.0 mi NNW 4.6 mph - N/A   Overcast
8:51 AM 39.0 °F 32.8 °F 21.0 °F 49% 30.03 in 10.0 mi North 9.2 mph - N/A   Overcast
9:51 AM 39.0 °F 32.3 °F 21.0 °F 49% 30.03 in 10.0 mi NNE 10.4 mph - N/A   Mostly Cloudy
10:51 AM 39.9 °F 33.4 °F 21.9 °F 49% 30.03 in 10.0 mi NNW 10.4 mph - N/A   Mostly Cloudy
11:51 AM 41.0 °F 35.2 °F 21.0 °F 45% 30.02 in 10.0 mi NW 9.2 mph 19.6 mph N/A   Mostly Cloudy
12:51 PM 42.1 °F 38.4 °F 21.0 °F 43% 30.01 in 10.0 mi North 5.8 mph - N/A   Mostly Cloudy
1:51 PM 42.1 °F 34.9 °F 19.9 °F 41% 30.00 in 10.0 mi NW 13.8 mph - N/A   Mostly Cloudy
2:51 PM 42.1 °F 35.2 °F 19.9 °F 41% 30.01 in 10.0 mi North 12.7 mph - N/A   Scattered Clouds
3:51 PM 41.0 °F 33.9 °F 19.0 °F 41% 30.03 in 10.0 mi NNW 12.7 mph - N/A   Mostly Cloudy
4:51 PM 37.9 °F 30.9 °F 18.0 °F 45% 30.06 in 10.0 mi North 10.4 mph - N/A   Partly Cloudy
5:51 PM 34.0 °F 28.0 °F 17.1 °F 50% 30.08 in 10.0 mi North 6.9 mph - N/A   Partly Cloudy
6:51 PM 34.0 °F 31.0 °F 17.1 °F 50% 30.10 in 10.0 mi NNW 3.5 mph - N/A   Partly Cloudy
7:51 PM 33.1 °F 30.0 °F 17.1 °F 52% 30.12 in 10.0 mi WNW 3.5 mph - N/A   Clear
8:51 PM 30.9 °F 25.2 °F 18.0 °F 59% 30.14 in 10.0 mi NNW 5.8 mph - N/A   Clear
9:51 PM 30.9 °F 24.3 °F 17.1 °F 57% 30.15 in 10.0 mi NW 6.9 mph - N/A   Clear
10:51 PM 30.9 °F 24.3 °F 17.1 °F 57% 30.15 in 10.0 mi NNW 6.9 mph - N/A   Clear
11:51 PM 28.9 °F 22.8 °F 17.1 °F 61% 30.17 in 10.0 mi NW 5.8 mph - N/A   Clear